Time,TemperatureF,DewpointF,PressureIn,WindDirection,WindDirectionDegrees,WindSpeedMPH,WindSpeedGustMPH,Humidity,HourlyPrecipIn,Conditions,Clouds,dailyrainin,SoftwareType,DateUTC
2013-01-29 00:01:00,24.1,22.6,29.98,East,80,0.0,0.0,94,0.00,,,0.00,Wunderground v.1.15,2013-01-29 05:01:00,
2013-01-29 00:06:00,24.0,22.5,29.99,North,5,1.0,1.0,94,0.00,,,0.00,Wunderground v.1.15,2013-01-29 05:06:00,
2013-01-29 00:11:00,23.9,22.4,29.99,North,360,0.0,0.0,94,0.00,,,0.00,Wunderground v.1.15,2013-01-29 05:11:00,
2013-01-29 00:16:00,23.9,22.4,29.99,North,360,0.0,2.0,94,0.00,,,0.00,Wunderground v.1.15,2013-01-29 05:16:00,
2013-01-29 00:21:00,24.0,22.5,29.99,North,5,0.0,0.0,94,0.00,,,0.00,Wunderground v.1.15,2013-01-29 05:21:00,
2013-01-29 00:26:00,24.0,22.5,29.99,North,360,0.0,0.0,94,0.00,,,0.00,Wunderground v.1.15,2013-01-29 05:26:00,
2013-01-29 00:31:00,24.0,22.5,29.99,North,360,0.0,0.0,94,0.00,,,0.00,Wunderground v.1.15,2013-01-29 05:31:00,
2013-01-29 00:41:00,24.1,22.6,29.99,North,360,0.0,0.0,94,0.00,,,0.00,Wunderground v.1.15,2013-01-29 05:41:00,
2013-01-29 00:46:00,24.1,22.6,29.99,North,360,0.0,2.0,94,0.00,,,0.00,Wunderground v.1.15,2013-01-29 05:46:00,
2013-01-29 00:56:00,24.2,22.7,29.99,North,360,0.0,0.0,94,0.00,,,0.00,Wunderground v.1.15,2013-01-29 05:56:00,
2013-01-29 01:06:00,24.2,22.7,30.00,North,5,0.0,1.0,94,0.00,,,0.00,Wunderground v.1.15,2013-01-29 06:06:00,
2013-01-29 01:16:00,24.1,22.6,30.00,North,355,1.0,2.0,94,0.00,,,0.00,Wunderground v.1.15,2013-01-29 06:16:00,
2013-01-29 01:26:00,24.1,22.6,30.00,NE,38,1.0,1.0,94,0.00,,,0.00,Wunderground v.1.15,2013-01-29 06:26:00,
2013-01-29 01:31:00,24.1,22.6,30.00,NE,38,0.0,0.0,94,0.00,,,0.00,Wunderground v.1.15,2013-01-29 06:31:00,
2013-01-29 01:41:00,24.2,22.7,30.00,NE,38,0.0,0.0,94,0.00,,,0.00,Wunderground v.1.15,2013-01-29 06:41:00,
2013-01-29 01:46:00,24.2,22.7,30.00,NE,38,0.0,0.0,94,0.00,,,0.00,Wunderground v.1.15,2013-01-29 06:46:00,
2013-01-29 01:51:00,24.2,22.7,30.00,NE,38,0.0,0.0,94,0.00,,,0.00,Wunderground v.1.15,2013-01-29 06:51:00,
2013-01-29 01:56:00,24.2,22.7,30.00,NE,38,0.0,1.0,94,0.00,,,0.00,Wunderground v.1.15,2013-01-29 06:56:00,
2013-01-29 02:06:00,24.3,22.8,30.00,NE,38,0.0,0.0,94,0.00,,,0.00,Wunderground v.1.15,2013-01-29 07:06:00,
2013-01-29 02:16:00,24.3,22.8,30.00,NE,38,0.0,2.0,94,0.00,,,0.00,Wunderground v.1.15,2013-01-29 07:16:00,
2013-01-29 02:26:00,24.3,22.8,30.00,NNE,33,1.0,1.0,94,0.00,,,0.00,Wunderground v.1.15,2013-01-29 07:26:00,
2013-01-29 02:31:00,24.3,22.8,30.00,North,5,1.0,1.0,94,0.00,,,0.00,Wunderground v.1.15,2013-01-29 07:31:00,
2013-01-29 02:41:00,24.3,22.8,30.01,North,360,1.0,1.0,94,0.00,,,0.00,Wunderground v.1.15,2013-01-29 07:41:00,
2013-01-29 02:51:00,24.3,22.8,30.01,North,360,1.0,1.0,94,0.00,,,0.00,Wunderground v.1.15,2013-01-29 07:51:00,
2013-01-29 02:56:00,24.3,22.8,30.01,North,360,0.0,1.0,94,0.00,,,0.00,Wunderground v.1.15,2013-01-29 07:56:00,
2013-01-29 03:06:00,24.3,22.8,30.01,NNE,17,0.0,0.0,94,0.00,,,0.00,Wunderground v.1.15,2013-01-29 08:06:00,
2013-01-29 03:11:00,24.3,22.8,30.02,NNE,17,1.0,1.0,94,0.00,,,0.00,Wunderground v.1.15,2013-01-29 08:11:00,
2013-01-29 03:21:00,24.3,22.8,30.01,NNE,17,0.0,0.0,94,0.00,,,0.00,Wunderground v.1.15,2013-01-29 08:21:00,
2013-01-29 03:31:00,24.3,22.8,30.02,NNE,17,0.0,0.0,94,0.00,,,0.00,Wunderground v.1.15,2013-01-29 08:31:00,
2013-01-29 03:36:00,24.3,22.8,30.01,NNE,17,0.0,0.0,94,0.00,,,0.00,Wunderground v.1.15,2013-01-29 08:36:00,
2013-01-29 03:41:00,24.4,22.9,30.01,NNE,17,0.0,0.0,94,0.00,,,0.00,Wunderground v.1.15,2013-01-29 08:41:00,
2013-01-29 03:51:00,24.5,23.0,30.01,NNE,17,0.0,0.0,94,0.00,,,0.00,Wunderground v.1.15,2013-01-29 08:51:00,
2013-01-29 04:01:00,24.6,23.1,30.02,NNE,17,0.0,0.0,94,0.00,,,0.00,Wunderground v.1.15,2013-01-29 09:01:00,
2013-01-29 04:11:00,24.5,23.0,30.02,NNE,24,0.0,1.0,94,0.00,,,0.00,Wunderground v.1.15,2013-01-29 09:11:00,
2013-01-29 04:21:00,24.5,23.0,30.02,NE,35,1.0,1.0,94,0.00,,,0.00,Wunderground v.1.15,2013-01-29 09:21:00,
2013-01-29 04:26:00,24.5,23.0,30.03,NE,34,1.0,1.0,94,0.00,,,0.00,Wunderground v.1.15,2013-01-29 09:26:00,
2013-01-29 04:31:00,24.4,22.9,30.02,NE,40,1.0,1.0,94,0.00,,,0.00,Wunderground v.1.15,2013-01-29 09:31:00,
2013-01-29 04:41:00,24.4,22.9,30.03,NE,38,0.0,0.0,94,0.00,,,0.00,Wunderground v.1.15,2013-01-29 09:41:00,
2013-01-29 04:51:00,24.4,22.9,30.03,NE,38,0.0,0.0,94,0.00,,,0.00,Wunderground v.1.15,2013-01-29 09:51:00,
2013-01-29 05:01:00,24.3,22.8,30.03,NE,38,0.0,0.0,94,0.00,,,0.00,Wunderground v.1.15,2013-01-29 10:01:00,
2013-01-29 05:11:00,24.2,22.7,30.03,NE,38,0.0,0.0,94,0.00,,,0.00,Wunderground v.1.15,2013-01-29 10:11:00,
2013-01-29 05:21:00,24.2,22.5,30.03,NE,38,0.0,0.0,93,0.00,,,0.00,Wunderground v.1.15,2013-01-29 10:21:00,
2013-01-29 05:31:00,24.2,22.5,30.04,NE,38,0.0,0.0,93,0.00,,,0.00,Wunderground v.1.15,2013-01-29 10:31:00,
2013-01-29 05:41:00,24.1,22.4,30.04,NE,38,0.0,3.0,93,0.00,,,0.00,Wunderground v.1.15,2013-01-29 10:41:00,
2013-01-29 05:51:00,24.2,22.5,30.05,NE,36,1.0,1.0,93,0.00,,,0.00,Wunderground v.1.15,2013-01-29 10:51:00,
2013-01-29 06:00:00,24.2,22.5,30.05,NE,36,0.0,2.0,93,0.00,,,0.00,Wunderground v.1.15,2013-01-29 11:00:00,
2013-01-29 06:06:00,24.2,22.5,30.05,NE,36,0.0,2.0,93,0.00,,,0.00,Wunderground v.1.15,2013-01-29 11:06:00,
2013-01-29 06:11:00,24.2,22.5,30.05,NE,36,0.0,0.0,93,0.00,,,0.00,Wunderground v.1.15,2013-01-29 11:11:00,
2013-01-29 06:21:00,24.2,22.5,30.05,NE,34,0.0,0.0,93,0.00,,,0.00,Wunderground v.1.15,2013-01-29 11:21:00,
2013-01-29 06:31:00,24.2,22.5,30.06,NE,34,0.0,0.0,93,0.00,,,0.00,Wunderground v.1.15,2013-01-29 11:31:00,
2013-01-29 06:41:00,24.2,22.5,30.06,NE,34,0.0,0.0,93,0.00,,,0.00,Wunderground v.1.15,2013-01-29 11:41:00,
2013-01-29 06:46:00,24.2,22.5,30.06,NE,34,0.0,0.0,93,0.00,,,0.00,Wunderground v.1.15,2013-01-29 11:46:00,
2013-01-29 06:56:00,24.3,22.6,30.06,NNE,21,0.0,0.0,93,0.00,,,0.00,Wunderground v.1.15,2013-01-29 11:56:00,
2013-01-29 07:06:00,24.4,22.7,30.08,NNE,21,0.0,0.0,93,0.00,,,0.00,Wunderground v.1.15,2013-01-29 12:06:00,
2013-01-29 07:16:00,24.5,22.8,30.08,NNE,21,0.0,0.0,93,0.00,,,0.00,Wunderground v.1.15,2013-01-29 12:16:00,
2013-01-29 07:21:00,24.5,22.8,30.08,NNE,21,0.0,0.0,93,0.00,,,0.00,Wunderground v.1.15,2013-01-29 12:21:00,
2013-01-29 07:31:00,24.7,23.0,30.08,NNE,21,0.0,0.0,93,0.00,,,0.00,Wunderground v.1.15,2013-01-29 12:31:00,
2013-01-29 07:36:00,24.7,23.0,30.08,NNE,21,0.0,0.0,93,0.00,,,0.00,Wunderground v.1.15,2013-01-29 12:36:00,
2013-01-29 07:46:00,24.8,23.1,30.09,NNE,21,0.0,0.0,93,0.00,,,0.00,Wunderground v.1.15,2013-01-29 12:46:00,
2013-01-29 07:56:00,24.9,22.9,30.10,NNE,21,0.0,0.0,92,0.00,,,0.00,Wunderground v.1.15,2013-01-29 12:56:00,
2013-01-29 08:06:00,25.1,23.1,30.10,NNE,21,0.0,0.0,92,0.00,,,0.00,Wunderground v.1.15,2013-01-29 13:06:00,
2013-01-29 08:16:00,25.3,23.3,30.10,NNE,21,0.0,0.0,92,0.00,,,0.00,Wunderground v.1.15,2013-01-29 13:16:00,
2013-01-29 08:21:00,25.5,23.5,30.11,NNE,21,0.0,0.0,92,0.00,,,0.00,Wunderground v.1.15,2013-01-29 13:21:00,
2013-01-29 08:26:00,25.6,23.6,30.10,NNE,21,0.0,0.0,92,0.00,,,0.00,Wunderground v.1.15,2013-01-29 13:26:00,
2013-01-29 08:36:00,25.7,23.7,30.11,NNE,21,0.0,0.0,92,0.00,,,0.00,Wunderground v.1.15,2013-01-29 13:36:00,
2013-01-29 08:46:00,26.0,24.0,30.10,NNE,21,0.0,0.0,92,0.00,,,0.00,Wunderground v.1.15,2013-01-29 13:46:00,
2013-01-29 08:56:00,26.2,23.9,30.11,NNE,21,0.0,0.0,91,0.00,,,0.00,Wunderground v.1.15,2013-01-29 13:56:00,
2013-01-29 09:06:00,26.6,24.3,30.11,NNE,21,0.0,1.0,91,0.00,,,0.00,Wunderground v.1.15,2013-01-29 14:06:00,
2013-01-29 09:16:00,27.0,24.7,30.12,NNE,21,0.0,0.0,91,0.00,,,0.00,Wunderground v.1.15,2013-01-29 14:16:00,
2013-01-29 09:26:00,27.3,24.8,30.12,NNE,21,0.0,0.0,90,0.00,,,0.00,Wunderground v.1.15,2013-01-29 14:26:00,
2013-01-29 09:36:00,27.6,24.8,30.12,NNE,21,0.0,0.0,89,0.00,,,0.00,Wunderground v.1.15,2013-01-29 14:36:00,
2013-01-29 09:46:00,27.7,24.9,30.13,NNE,21,1.0,1.0,89,0.00,,,0.00,Wunderground v.1.15,2013-01-29 14:46:00,
2013-01-29 09:56:00,27.7,24.9,30.12,NE,40,2.0,2.0,89,0.00,,,0.00,Wunderground v.1.15,2013-01-29 14:56:00,
2013-01-29 10:06:00,28.2,25.4,30.13,NE,40,0.0,1.0,89,0.00,,,0.00,Wunderground v.1.15,2013-01-29 15:06:00,
2013-01-29 10:16:00,28.8,25.7,30.13,NE,40,0.0,0.0,88,0.00,,,0.00,Wunderground v.1.15,2013-01-29 15:16:00,
2013-01-29 10:21:00,29.2,26.1,30.13,NE,40,0.0,0.0,88,0.00,,,0.00,Wunderground v.1.15,2013-01-29 15:21:00,
2013-01-29 10:31:00,29.6,26.2,30.13,NE,40,0.0,0.0,87,0.00,,,0.00,Wunderground v.1.15,2013-01-29 15:31:00,
2013-01-29 10:41:00,30.1,26.7,30.13,NE,40,0.0,0.0,87,0.00,,,0.00,Wunderground v.1.15,2013-01-29 15:41:00,
2013-01-29 10:51:00,30.2,26.5,30.14,NE,40,0.0,1.0,86,0.00,,,0.00,Wunderground v.1.15,2013-01-29 15:51:00,
2013-01-29 11:01:00,30.5,26.8,30.14,NE,40,0.0,0.0,86,0.00,,,0.00,Wunderground v.1.15,2013-01-29 16:01:00,
2013-01-29 11:10:00,30.7,27.0,30.14,NE,40,0.0,0.0,86,0.00,,,0.00,Wunderground v.1.15,2013-01-29 16:10:00,
2013-01-29 11:16:00,30.9,27.2,30.14,NE,40,0.0,0.0,86,0.00,,,0.01,Wunderground v.1.15,2013-01-29 16:16:00,
2013-01-29 11:21:00,31.1,27.4,30.14,NE,40,0.0,0.0,86,0.00,,,0.01,Wunderground v.1.15,2013-01-29 16:21:00,
2013-01-29 11:31:00,31.1,27.1,30.15,NE,40,0.0,0.0,85,0.00,,,0.01,Wunderground v.1.15,2013-01-29 16:31:00,
2013-01-29 11:36:00,31.2,27.5,30.15,NE,40,0.0,0.0,86,0.00,,,0.01,Wunderground v.1.15,2013-01-29 16:36:00,
2013-01-29 11:41:00,31.3,27.3,30.14,NE,40,0.0,2.0,85,0.00,,,0.01,Wunderground v.1.15,2013-01-29 16:41:00,
2013-01-29 11:46:00,31.3,27.3,30.14,NE,40,0.0,2.0,85,0.00,,,0.01,Wunderground v.1.15,2013-01-29 16:46:00,
2013-01-29 11:56:00,31.5,27.8,30.13,NE,40,0.0,2.0,86,0.00,,,0.01,Wunderground v.1.15,2013-01-29 16:56:00,
2013-01-29 12:01:00,31.7,28.0,30.14,NE,40,0.0,0.0,86,0.00,,,0.01,Wunderground v.1.15,2013-01-29 17:01:00,
2013-01-29 12:06:00,31.9,27.9,30.14,NE,40,0.0,0.0,85,0.00,,,0.01,Wunderground v.1.15,2013-01-29 17:06:00,
2013-01-29 12:16:00,32.1,28.1,30.12,NE,40,1.0,1.0,85,0.00,,,0.01,Wunderground v.1.15,2013-01-29 17:16:00,
2013-01-29 12:26:00,32.5,28.5,30.12,NE,40,0.0,1.0,85,0.00,,,0.01,Wunderground v.1.15,2013-01-29 17:26:00,
2013-01-29 12:36:00,32.7,28.7,30.11,NE,40,0.0,2.0,85,0.00,,,0.01,Wunderground v.1.15,2013-01-29 17:36:00,
2013-01-29 12:46:00,33.5,29.5,30.11,NE,40,0.0,0.0,85,0.00,,,0.01,Wunderground v.1.15,2013-01-29 17:46:00,
2013-01-29 12:56:00,34.2,29.6,30.12,NE,40,0.0,0.0,83,0.00,,,0.01,Wunderground v.1.15,2013-01-29 17:56:00,
2013-01-29 13:06:00,34.3,29.4,30.12,NE,40,0.0,0.0,82,0.00,,,0.01,Wunderground v.1.15,2013-01-29 18:06:00,
2013-01-29 13:16:00,34.1,29.2,30.12,NE,40,0.0,0.0,82,0.00,,,0.01,Wunderground v.1.15,2013-01-29 18:16:00,
2013-01-29 13:21:00,34.3,29.7,30.11,NE,40,0.0,0.0,83,0.00,,,0.01,Wunderground v.1.15,2013-01-29 18:21:00,
2013-01-29 13:26:00,34.4,29.8,30.12,NE,40,0.0,0.0,83,0.00,,,0.01,Wunderground v.1.15,2013-01-29 18:26:00,
2013-01-29 13:31:00,34.5,29.6,30.12,NE,40,0.0,0.0,82,0.00,,,0.01,Wunderground v.1.15,2013-01-29 18:31:00,
2013-01-29 13:41:00,34.7,29.8,30.10,NE,40,0.0,0.0,82,0.00,,,0.01,Wunderground v.1.15,2013-01-29 18:41:00,
2013-01-29 13:46:00,34.8,29.9,30.10,NE,40,0.0,1.0,82,0.00,,,0.01,Wunderground v.1.15,2013-01-29 18:46:00,
2013-01-29 13:56:00,34.5,29.6,30.11,NE,40,0.0,0.0,82,0.00,,,0.02,Wunderground v.1.15,2013-01-29 18:56:00,
2013-01-29 14:06:00,34.1,29.2,30.11,NE,40,0.0,0.0,82,0.06,,,0.03,Wunderground v.1.15,2013-01-29 19:06:00,
2013-01-29 14:16:00,34.2,29.6,30.12,NE,40,0.0,0.0,83,0.05,,,0.04,Wunderground v.1.15,2013-01-29 19:16:00,
2013-01-29 14:21:00,34.2,29.6,30.11,NE,40,0.0,0.0,83,0.05,,,0.04,Wunderground v.1.15,2013-01-29 19:21:00,
2013-01-29 14:26:00,34.3,29.7,30.11,NE,40,0.0,0.0,83,0.05,,,0.04,Wunderground v.1.15,2013-01-29 19:26:00,
2013-01-29 14:36:00,34.1,29.5,30.11,NE,40,0.0,0.0,83,0.05,,,0.05,Wunderground v.1.15,2013-01-29 19:36:00,
2013-01-29 14:46:00,33.9,29.3,30.12,NE,40,0.0,0.0,83,0.00,,,0.06,Wunderground v.1.15,2013-01-29 19:46:00,
2013-01-29 14:56:00,33.8,29.5,30.12,NE,40,0.0,0.0,84,0.00,,,0.06,Wunderground v.1.15,2013-01-29 19:56:00,
2013-01-29 15:01:00,33.8,29.5,30.12,NE,40,0.0,0.0,84,0.00,,,0.06,Wunderground v.1.15,2013-01-29 20:01:00,
2013-01-29 15:11:00,33.7,29.4,30.12,NE,40,0.0,0.0,84,0.00,,,0.07,Wunderground v.1.15,2013-01-29 20:11:00,
2013-01-29 15:16:00,33.6,29.3,30.12,NE,40,0.0,0.0,84,0.00,,,0.07,Wunderground v.1.15,2013-01-29 20:16:00,
2013-01-29 15:21:00,33.5,29.2,30.12,NE,40,0.0,0.0,84,0.00,,,0.07,Wunderground v.1.15,2013-01-29 20:21:00,
2013-01-29 15:26:00,33.4,29.4,30.13,NE,40,0.0,0.0,85,0.00,,,0.07,Wunderground v.1.15,2013-01-29 20:26:00,
2013-01-29 15:36:00,33.3,29.3,30.12,NE,40,0.0,1.0,85,0.00,,,0.08,Wunderground v.1.15,2013-01-29 20:36:00,
2013-01-29 15:46:00,33.3,29.3,30.12,NE,40,0.0,0.0,85,0.00,,,0.08,Wunderground v.1.15,2013-01-29 20:46:00,
2013-01-29 15:51:00,33.2,29.2,30.12,NE,40,0.0,0.0,85,0.00,,,0.08,Wunderground v.1.15,2013-01-29 20:51:00,
2013-01-29 16:01:00,33.3,29.3,30.13,NE,40,0.0,0.0,85,0.00,,,0.08,Wunderground v.1.15,2013-01-29 21:01:00,
2013-01-29 16:11:00,33.3,29.6,30.11,NE,40,0.0,0.0,86,0.00,,,0.08,Wunderground v.1.15,2013-01-29 21:11:00,
2013-01-29 16:16:00,33.3,29.6,30.11,NE,40,0.0,0.0,86,0.00,,,0.09,Wunderground v.1.15,2013-01-29 21:16:00,
2013-01-29 16:26:00,33.1,29.4,30.11,NE,40,0.0,0.0,86,0.00,,,0.09,Wunderground v.1.15,2013-01-29 21:26:00,
2013-01-29 16:31:00,33.0,29.3,30.12,NE,40,0.0,0.0,86,0.00,,,0.09,Wunderground v.1.15,2013-01-29 21:31:00,
2013-01-29 16:41:00,32.9,29.5,30.12,NE,40,0.0,0.0,87,0.00,,,0.09,Wunderground v.1.15,2013-01-29 21:41:00,
2013-01-29 16:46:00,32.9,29.5,30.12,NE,40,0.0,0.0,87,0.00,,,0.09,Wunderground v.1.15,2013-01-29 21:46:00,
2013-01-29 16:56:00,32.9,29.7,30.13,NE,40,0.0,0.0,88,0.00,,,0.09,Wunderground v.1.15,2013-01-29 21:56:00,
2013-01-29 17:06:00,32.9,29.7,30.13,NE,40,0.0,0.0,88,0.00,,,0.09,Wunderground v.1.15,2013-01-29 22:06:00,
2013-01-29 17:11:00,32.8,29.6,30.13,NE,40,0.0,0.0,88,0.00,,,0.09,Wunderground v.1.15,2013-01-29 22:11:00,
2013-01-29 17:21:00,32.8,29.6,30.12,NE,40,0.0,0.0,88,0.00,,,0.09,Wunderground v.1.15,2013-01-29 22:21:00,
2013-01-29 17:31:00,32.8,29.9,30.12,NE,40,0.0,0.0,89,0.00,,,0.09,Wunderground v.1.15,2013-01-29 22:31:00,
2013-01-29 17:41:00,32.8,29.9,30.13,NE,40,0.0,0.0,89,0.00,,,0.09,Wunderground v.1.15,2013-01-29 22:41:00,
2013-01-29 17:51:00,32.9,30.0,30.13,NE,40,0.0,0.0,89,0.00,,,0.10,Wunderground v.1.15,2013-01-29 22:51:00,
2013-01-29 18:01:00,32.9,30.0,30.13,NE,40,0.0,0.0,89,0.00,,,0.10,Wunderground v.1.15,2013-01-29 23:01:00,
2013-01-29 18:06:00,32.9,30.0,30.13,NE,40,0.0,0.0,89,0.00,,,0.10,Wunderground v.1.15,2013-01-29 23:06:00,
2013-01-29 18:16:00,32.9,30.0,30.14,NE,40,0.0,0.0,89,0.00,,,0.10,Wunderground v.1.15,2013-01-29 23:16:00,
2013-01-29 18:26:00,33.0,30.1,30.14,NE,40,0.0,0.0,89,0.00,,,0.10,Wunderground v.1.15,2013-01-29 23:26:00,
2013-01-29 18:31:00,33.1,30.2,30.14,NE,40,0.0,0.0,89,0.00,,,0.10,Wunderground v.1.15,2013-01-29 23:31:00,
2013-01-29 18:41:00,33.0,30.1,30.14,NE,40,0.0,0.0,89,0.00,,,0.10,Wunderground v.1.15,2013-01-29 23:41:00,
2013-01-29 18:46:00,33.0,30.1,30.14,NE,40,0.0,0.0,89,0.00,,,0.10,Wunderground v.1.15,2013-01-29 23:46:00,
2013-01-29 18:56:00,32.9,30.0,30.13,NE,40,0.0,0.0,89,0.00,,,0.10,Wunderground v.1.15,2013-01-29 23:56:00,
2013-01-29 19:06:00,33.0,30.1,30.14,NE,40,0.0,0.0,89,0.00,,,0.10,Wunderground v.1.15,2013-01-30 00:06:00,
2013-01-29 19:11:00,33.0,30.1,30.13,NE,40,0.0,0.0,89,0.00,,,0.10,Wunderground v.1.15,2013-01-30 00:11:00,
2013-01-29 19:21:00,33.0,30.1,30.13,NE,40,0.0,0.0,89,0.00,,,0.10,Wunderground v.1.15,2013-01-30 00:21:00,
2013-01-29 19:26:00,33.0,30.1,30.13,NE,40,0.0,0.0,89,0.00,,,0.10,Wunderground v.1.15,2013-01-30 00:26:00,
2013-01-29 19:31:00,33.0,30.1,30.13,NE,40,0.0,0.0,89,0.00,,,0.10,Wunderground v.1.15,2013-01-30 00:31:00,
2013-01-29 19:41:00,33.0,30.1,30.13,NE,40,0.0,0.0,89,0.00,,,0.10,Wunderground v.1.15,2013-01-30 00:41:00,
2013-01-29 19:51:00,33.0,30.1,30.12,NE,40,0.0,0.0,89,0.00,,,0.10,Wunderground v.1.15,2013-01-30 00:51:00,
2013-01-29 20:01:00,33.0,30.1,30.12,NE,40,0.0,0.0,89,0.00,,,0.10,Wunderground v.1.15,2013-01-30 01:01:00,
2013-01-29 20:06:00,33.1,30.5,30.12,NE,40,0.0,0.0,90,0.00,,,0.10,Wunderground v.1.15,2013-01-30 01:06:00,
2013-01-29 20:11:00,33.2,30.6,30.12,NE,40,0.0,0.0,90,0.00,,,0.10,Wunderground v.1.15,2013-01-30 01:11:00,
2013-01-29 20:21:00,33.1,30.5,30.13,NE,40,0.0,0.0,90,0.00,,,0.11,Wunderground v.1.15,2013-01-30 01:21:00,
2013-01-29 20:31:00,33.0,30.4,30.14,NE,40,0.0,0.0,90,0.00,,,0.11,Wunderground v.1.15,2013-01-30 01:31:00,
2013-01-29 20:41:00,32.9,30.3,30.14,NE,40,0.0,0.0,90,0.00,,,0.11,Wunderground v.1.15,2013-01-30 01:41:00,
2013-01-29 20:51:00,32.9,30.3,30.13,NE,40,0.0,0.0,90,0.00,,,0.11,Wunderground v.1.15,2013-01-30 01:51:00,
2013-01-29 20:56:00,33.0,30.4,30.13,NE,40,0.0,0.0,90,0.00,,,0.11,Wunderground v.1.15,2013-01-30 01:56:00,
2013-01-29 21:01:00,33.0,30.4,30.13,NE,40,0.0,0.0,90,0.00,,,0.11,Wunderground v.1.15,2013-01-30 02:01:00,
2013-01-29 21:11:00,33.1,30.8,30.13,NE,40,0.0,0.0,91,0.00,,,0.11,Wunderground v.1.15,2013-01-30 02:11:00,
2013-01-29 21:21:00,33.2,30.9,30.13,NE,40,0.0,0.0,91,0.00,,,0.11,Wunderground v.1.15,2013-01-30 02:21:00,
2013-01-29 21:31:00,33.1,30.8,30.13,NE,40,0.0,0.0,91,0.00,,,0.11,Wunderground v.1.15,2013-01-30 02:31:00,
2013-01-29 21:41:00,33.0,30.7,30.12,NE,40,0.0,0.0,91,0.00,,,0.11,Wunderground v.1.15,2013-01-30 02:41:00,
2013-01-29 21:51:00,33.0,30.7,30.13,NE,40,0.0,0.0,91,0.00,,,0.11,Wunderground v.1.15,2013-01-30 02:51:00,
2013-01-29 22:01:00,33.1,31.0,30.13,NE,40,0.0,0.0,92,0.00,,,0.11,Wunderground v.1.15,2013-01-30 03:01:00,
2013-01-29 22:11:00,33.0,30.9,30.12,NE,40,0.0,0.0,92,0.00,,,0.11,Wunderground v.1.15,2013-01-30 03:11:00,
2013-01-29 22:21:00,33.0,31.2,30.12,NE,40,0.0,0.0,93,0.00,,,0.11,Wunderground v.1.15,2013-01-30 03:21:00,
2013-01-29 22:31:00,32.9,31.1,30.11,NE,40,0.0,0.0,93,0.00,,,0.11,Wunderground v.1.15,2013-01-30 03:31:00,
2013-01-29 22:41:00,32.8,31.0,30.11,NE,40,0.0,0.0,93,0.00,,,0.11,Wunderground v.1.15,2013-01-30 03:41:00,
2013-01-29 22:51:00,32.7,30.9,30.11,NE,40,0.0,0.0,93,0.00,,,0.11,Wunderground v.1.15,2013-01-30 03:51:00,
2013-01-29 23:00:00,32.7,31.2,30.11,NE,40,0.0,0.0,94,0.00,,,0.11,Wunderground v.1.15,2013-01-30 04:00:00,
2013-01-29 23:06:00,32.7,31.2,30.11,NE,40,0.0,0.0,94,0.00,,,0.11,Wunderground v.1.15,2013-01-30 04:06:00,
2013-01-29 23:16:00,32.6,31.1,30.11,NE,40,0.0,0.0,94,0.00,,,0.11,Wunderground v.1.15,2013-01-30 04:16:00,
2013-01-29 23:21:00,32.6,31.1,30.11,NE,40,0.0,0.0,94,0.00,,,0.11,Wunderground v.1.15,2013-01-30 04:21:00,
2013-01-29 23:31:00,32.6,31.1,30.10,NE,40,0.0,0.0,94,0.00,,,0.11,Wunderground v.1.15,2013-01-30 04:31:00,
2013-01-29 23:41:00,32.7,31.2,30.10,NE,40,0.0,0.0,94,0.00,,,0.11,Wunderground v.1.15,2013-01-30 04:41:00,
2013-01-29 23:51:00,32.8,31.3,30.11,NE,40,0.0,0.0,94,0.00,,,0.11,Wunderground v.1.15,2013-01-30 04:51:00,